Location: Heidgraben
(53.7081°N, 9.6576°E)
Time: 02:58:36
(UTC+00:00)

In-Cosmos 22 Rocket - Pass Details

Date: 05 July 2020
Orbit: 791 x 887 km, 81.2° (Epoch: 06 August)

Event Time Altitude Azimuth Distance (km) Brightness Sun altitude
Exits shadow 21:29:50 11° 170° (S) 2,290 5.9 -9.6°
Maximum altitude 21:34:46 52° 96° (E) 984 4.4 -9.9°
Drops below altitude 10° 21:39:57 10° 21° (NNE) 2,379 7.2 -10.2°
Sets 21:42:23 0° 17° (NNE) 3,321 8.1 -10.4°
